Location: Erskine
(52.3216°N, 112.8806°W)
Time: 07:07:50
(UTC+00:00)

MOZHAYETS 4 - Visible Passes

Search period start: 03 December 2023 00:00
Search period end: 13 December 2023 00:00
Orbit: 656 x 672 km, 98.3° (Epoch: 03 December)

Date Brightness Start Highest point End Pass type
(mag) Time Alt. Az. Time Alt. Az. Time Alt. Az.
03 Dec 9.3 00:38:57 10° N 00:43:06 33° WNW 00:47:13 10° SW visible
04 Dec 10.1 01:10:19 10° N 01:13:41 20° WNW 01:17:02 10° WSW visible
05 Dec 8.2 00:03:26 10° N 00:08:01 65° WNW 00:12:34 10° SSW visible
05 Dec 10.5 01:42:13 10° NNW 01:44:08 13° NW 01:46:04 10° WNW visible
06 Dec 9.2 00:34:30 10° N 00:38:44 36° WNW 00:42:57 10° SW visible
07 Dec 10.0 01:05:48 10° N 01:09:20 22° WNW 01:12:50 10° WSW visible
07 Dec 8.0 23:59:00 10° NNE 00:03:36 71° WNW 00:08:11 10° SSW visible
08 Dec 10.4 01:37:33 10° NNW 01:39:47 14° NW 01:42:01 10° W visible
09 Dec 9.0 00:30:01 10° N 00:34:20 40° WNW 00:38:37 10° SW visible
10 Dec 9.9 01:01:16 10° N 01:04:55 24° WNW 01:08:34 10° WSW visible
10 Dec 7.9 23:54:31 10° NNE 23:59:09 78° WNW 00:03:45 10° SSW visible
11 Dec 10.4 01:32:53 10° NNW 01:35:23 15° NW 01:37:52 10° W visible
12 Dec 8.9 00:25:30 10° N 00:29:53 43° WNW 00:34:13 10° SW visible
